User: anonymous   Login
Location: Caltech
(34.1382°N, 118.1253°W)
Time: 08:14:56
(UTC-07:00)
Language:

COSMOS 2428 - Orbit

View from above orbital plane
View from above orbital plane
View from above satellite
View from above satellite

Ground track
Ground track

The orbit data is extracted from the following two-line orbital elements,

1 31792U 07029A   17086.89145916 -.00000058 +00000-0 -54370-5 0  9994
2 31792 070.9130 222.7992 0005574 023.4175 336.7198 14.12253985502509
Epoch (UTC): 27 March 2017 21:23:42
Eccentricity: 0.0005574
inclination: 70.9130°
perigee height: 847 km
apogee height: 856 km
right ascension of ascending node: 222.7992°
argument of perigee: 23.4175°
revolutions per day: 14.12253985
mean anomaly at epoch: 336.7198°
orbit number at epoch: 50250

The dashed part of the orbit path shows where the satellite is in the earth's shadow,  

DLR